Regional Weather Roundup
Issued by NWS Newport/Morehead, NC

Current Version | Previous Version | Text Only | Print | Product List | Glossary On
Versions: 1 2 3 4 5 6 7 8 9 10 11 12 13 14 15 16 17 18 19 20 21 22 23 24 25 26 27 28 29 30 31 32 33 34 35 36 37 38 39 40 41 42 43 44 45 46 47 48 49 50
000
ASUS42 KMHX 271112
RWRMHX
WEATHER ROUNDUP FOR EASTERN NORTH CAROLINA
NATIONAL WEATHER SERVICE NEWPORT/MOREHEAD CITY NC
600 AM EST FRI FEB 27 2015

NOTE: "FAIR" INDICATES FEW OR NO CLOUDS BELOW 12,000 FEET
WITH NO SIGNIFICANT WEATHER AND/OR OBSTRUCTIONS TO VISIBILITY

NCZ015>017-031-032-045>047-102-103-271200-
NORTH COAST

CITY           SKY/WX    TMP DP  RH WIND       PRES   REMARKS
EDENTON          N/A     28  27  96 CALM      30.26R FOG
ELIZABETH CITY PTCLDY    27  25  92 NW5       30.26R
KITTY HAWK     PTSUNNY   32  30  92 N5        30.23R
MANTEO         MOCLDY    32  28  86 N8        30.25R

$$

NCZ045>047-081-094-103-104-271200-
CENTRAL COAST

CITY           SKY/WX    TMP DP  RH WIND       PRES   REMARKS
FRISCO         CLOUDY    34  31  88 VRB6      30.23R
SWANQUARTER      N/A     30 N/A N/A N2G8      30.21S

$$

NCZ095-097-098-100-101-271200-
SOUTHERN COAST

CITY           SKY/WX    TMP DP  RH WIND       PRES   REMARKS
BEAUFORT       CLOUDY    32  28  85 N6        30.26R
CEDAR ISLAND     N/A     34 N/A N/A N12G21    30.27R
JACKSONVILLE   CLOUDY    33  30  88 N5        30.26R
PINEY ISLAND     N/A    N/A N/A N/A MISG      30.25R
WILMINGTON     CLOUDY    33  31  92 N5        30.26R FOG


$$

NCZ011>013-027>030-043-044-078>080-089-090>093-098-271200-
COASTAL PLAIN

CITY           SKY/WX    TMP DP  RH WIND       PRES   REMARKS
AHOSKIE        FOG       24  23  96 CALM      30.27R VSB 1/2
CLINTON        MOCLDY    30  30 100 CALM      30.26R FOG
ELIZABETHTOWN  CLOUDY    31  31  98 CALM      30.25R
GOLDSBORO      PTCLDY    29  29  99 CALM      30.23R FOG
GREENVILLE     FOG       28  28 100 CALM      30.26R VSB<1/4
HAVELOCK       CLOUDY    33  28  81 N7        30.26R
KENANSVILLE    MOCLDY    30  30  99 CALM      30.26R FOG
KINSTON        NOT AVBL
NEW BERN       CLOUDY    32  29  88 N3        30.26R
RICHLANDS      CLOUDY    32  27  80 CALM      30.26R
ROCKY MOUNT    FOG       25  23  92 CALM      30.26R VSB 1/2
WASHINGTON     MOCLDY    29  28  96 CALM      30.26R FOG
WHITEVILLE     CLOUDY    33  31  94 CALM      30.25R

$$

AMZ130-135-150-152-154-156-158-170-250-252-270-ANZ085-086-088-633-658-670-271200-
MARINE OBSERVATIONS

STATION/POSITION TIME  TEMP    WIND        PRES    WAVE   SWELL
                       AIR SEA DIR/SP/G            HT/PER HT/PER
                 (UTC) (F)     (DEG/KT/KT) (MB)    (FT/S) (FT/S)
CHESAPEAKE LIGHT 1000   32      20/ 12/ 13 1024.0
64 E VA BEACH    1050   42 60  360/ 17/ 21 1022.5    9/10   8/10
DUCK             1000   33 34   10/ 13/ 14 1022.6
2 E DUCK         1011      35                N/A     6/11   3/11
10 NE DUCK       1022      36                N/A     8/10   3/11
OREGON INLET     1000   34 37  340/  8/ 11 1022.9
HATTERAS CG      1000   34 39  350/ 18/ 20 1022.7
CAPE LOOKOUT     1100   34     360/  9/ 12 1024.3
BEAUFORT LAB     1000   33 40  360/ 11/ 13 1022.2
27 SE WRIGHTSVLE NOT AVBL
5 SE WRIGHTSVLE  NOT AVBL
225 S CAPE HAT   1050   62 70  330/ 12/ 16 1019.5   10/ 8   8/ 8
41 SE CHARLESTON 1050   46 65   10/ 14/ 19 1023.2    5/ 9   3/ 9

$$


USA.gov is the U.S. government's official web portal to all federal, state and local government web resources and services.